Location: Little Bennett Regional Park
(39.2840°N, 77.2890°W)
Time: 05:52:39
(UTC-05:00)

Daily predictions for brighter satellites

Satellite Brightness Start Highest point End
(mag) Time Altitude Azimuth Time Altitude Azimuth Time Altitude Azimuth
Cosmos 2237 Rocket 4.3 03:54:16 22° E 03:54:16 22° E 03:56:44 10° ESE
Cosmos 2297 Rocket 4.0 04:05:03 28° ENE 04:05:03 28° ENE 04:08:32 10° NE
Cosmos 2227 Rocket 3.9 04:18:47 27° NE 04:18:47 27° NE 04:21:19 10° NNE
Cosmos 1980 4.5 04:40:45 45° SSE 04:40:45 45° SSE 04:44:34 10° SSE
Cosmos 2082 4.4 04:45:41 46° NNE 04:45:41 46° NNE 04:49:38 10° NNE
Cosmos 2333 Rocket 3.3 04:50:14 34° S 04:50:14 34° S 04:53:21 10° SSE
NOSS 0 Rocket 4.5 05:04:11 42° SSW 05:04:11 42° SSW 05:08:29 10° S
Cosmos 2219 Rocket 4.0 05:11:11 17° SSW 05:11:11 17° SSW 05:12:33 10° S
Cosmos 1743 Rocket 4.0 05:09:30 50° NNE 05:10:23 61° E 05:14:43 10° SSE
Cosmos 2233 Rocket 4.2 05:05:50 10° S 05:12:00 70° E 05:18:16 10° NNE
DMSP 5D-2 F-14 4.5 05:08:10 10° NNE 05:13:37 80° WNW 05:19:02 10° SSW
Cosmos 1842 Rocket 3.9 05:14:29 10° S 05:18:44 61° E 05:23:02 10° NNE
COSMO-SKYMED 1 2.7 05:15:21 10° SSE 05:19:40 71° ENE 05:21:11 39° N
Cosmos 968 Rocket 3.7 05:21:33 10° S 05:26:46 71° ESE 05:32:02 10° NNE
NOAA 6 3.9 05:22:05 10° N 05:27:17 72° WNW 05:32:26 10° SSW
Cosmos 1816 Rocket 4.4 05:24:52 10° N 05:31:12 73° W 05:37:24 10° S
Cosmos 2151 3.8 05:30:27 10° N 05:34:34 49° E 05:38:40 10° SSE
Cosmos 2237 Rocket 2.8 05:36:10 36° WSW 05:36:10 36° WSW 05:40:56 10° S
USA 229 DEB 3.7 05:33:34 27° NW 05:37:48 75° WSW 05:45:01 10° SSE
USA 229 3.7 05:33:38 27° NW 05:37:53 76° WSW 05:45:07 10° SSE
Cosmos 1500 Rocket 3.5 05:34:37 18° N 05:37:54 89° E 05:42:21 10° S
SL-16 R/B 2.1 05:35:44 24° NNW 05:39:17 83° WSW 05:44:57 10° SSE
Tsikada Rocket 4.1 05:34:43 10° NNW 05:40:50 49° W 05:46:51 10° SSW
Cosmos 2346 Rocket 4.3 05:36:12 10° N 05:42:22 83° W 05:48:25 10° S
GPS 2-05 Rocket1 4.3 05:44:52 24° SSW 05:45:48 28° SSE 05:48:43 10° ESE
Cosmos 2297 Rocket 2.7 05:46:57 34° WNW 05:47:31 35° WNW 05:52:40 10° N
Meteor 1-11 4.5 05:45:58 10° N 05:51:49 75° E 05:57:36 10° SSE
Cosmos 220 Rocket 4.0 05:48:05 10° SSW 05:52:26 57° WNW 05:56:47 10° N
Cosmos 1340 Rocket 3.4 05:50:28 10° N 05:54:21 56° E 05:58:13 10° SSE
Cosmos 1777 Rocket 4.3 05:51:43 10° S 05:56:53 68° ESE 06:02:04 10° NNE
Aureole 2 Rocket 3.4 05:57:16 34° WNW 05:58:01 37° WSW 06:01:52 10° S
Cosmos 540 Rocket 4.2 05:58:34 28° W 05:59:15 29° W 06:03:37 10° SSW
Cosmos 2227 Rocket 3.4 06:00:39 21° NW 06:00:39 21° NW 06:04:30 10° N
Cosmos 1464 Rocket 4.2 05:54:34 10° S 06:00:55 76° E 06:07:12 10° N
Meteor 1-16 Rocket 4.0 05:55:48 10° SSW 06:01:15 72° W 06:06:36 10° N
Cosmos 1271 Rocket 2.5 05:58:53 10° S 06:02:43 83° W 06:06:33 10° N
IDEFIX/ARIANE 42P 3.6 06:00:04 10° NNE 06:05:12 50° E 06:10:17 10° S
OAO 2 Rocket 3.8 06:04:01 21° WSW 06:07:01 51° S 06:11:48 10° ESE
SL-14 R/B 3.3 06:03:17 10° NNW 06:07:19 63° W 06:11:19 10° S
ISS -3.2 06:06:00 30° NW 06:07:23 68° NE 06:10:38 10° ESE
SKYMED 2 4.3 06:03:58 10° SSW 06:07:51 32° W 06:09:51 22° NW
Meteor 1-28 Rocket 3.4 06:04:16 10° S 06:07:53 46° W 06:10:38 16° NNW
Cosmos 304 Rocket 4.0 06:05:04 18° NW 06:08:24 47° WSW 06:12:57 10° S
Meteor 1-4 Rocket 3.4 06:08:42 10° SW 06:11:59 30° WNW 06:15:21 10° NNW
YAOGAN 1 3.8 06:11:26 10° NNE 06:15:36 44° E 06:19:44 10° S
Meteor 2-1 Rocket 4.2 06:13:49 10° SSW 06:19:23 80° W 06:25:08 10° N
Meteor 2-12 Rocket 4.4 06:13:40 10° S 06:19:48 79° W 06:25:59 10° N
Cosmos 1072 Rocket 4.4 06:14:02 10° SSW 06:20:12 70° W 06:26:21 10° N
CZ-4 R/B 1.5 06:16:26 10° NNE 06:20:29 78° ESE 06:24:35 10° S
USA 234 3.5 06:14:09 10° ESE 06:20:39 70° NE 06:27:12 10° NW
Cosmos 1538 Rocket 4.1 06:16:54 10° NNW 06:22:10 57° WSW 06:27:24 10° S
Aureole 1 4.1 06:23:33 10° SSW 06:26:32 65° WNW 06:29:57 10° NNE
ERBS 2.6 06:23:54 14° NW 06:26:43 63° NE 06:30:06 10° SE
Cosmos 1626 2.5 06:24:09 10° N 06:27:53 66° E 06:31:35 10° SSE
Cosmos 1666 Rocket 4.2 06:23:58 10° N 06:28:23 61° E 06:32:48 10° SSE
Cosmos 923 Rocket 4.2 06:24:27 10° NNW 06:29:42 75° ENE 06:34:56 10° SSE
PSLV R/B 3.4 06:29:55 10° WSW 06:33:15 73° SSE 06:36:36 10° ENE
NOSS 3-1 (C) 4.1 06:25:38 10° NW 06:33:19 78° WSW 06:41:42 10° SSE
Ariane Rocket 3.6 06:29:36 10° N 06:34:12 35° WNW 06:38:46 10° SW
Cosmos 2221 2.8 06:31:32 10° SSW 06:35:44 47° W 06:39:55 10° N
Coronas F rocket 2.8 06:34:22 10° N 06:36:36 34° E 06:38:50 10° SSE
SL-8 R/B 4.4 06:34:13 11° NW 06:38:34 46° NNE 06:43:12 10° E
TELKOM 3 3.7 06:36:34 13° W 06:38:39 34° NNW 06:40:41 10° NE
Cosmos 1680 Rocket 3.9 06:33:44 10° NNW 06:39:03 69° ENE 06:44:20 10° SSE
CSL-04 Debris 4.4 06:34:19 10° N 06:39:35 47° WNW 06:44:46 10° SW
MSX 4.2 06:37:10 10° NNE 06:42:56 72° ESE 06:48:42 10° S
Cosmos 1603 3.7 06:37:29 10° NNW 06:43:04 67° WSW 06:48:40 10° S
CORIOLIS 4.3 06:38:15 10° NNE 06:43:41 82° ESE 06:49:07 10° SSW
Cosmos 389 Rocket 2.7 06:44:48 10° S 06:48:27 79° E 06:52:08 10° NNE
Cosmos 1908 3.2 06:45:30 10° S 06:49:19 87° E 06:53:10 10° N
Cosmos 2263 Rocket 3.0 06:44:57 10° S 06:50:29 58° ESE 06:56:04 10° NNE
AQUARIUS 4.2 06:49:07 10° N 06:53:33 58° WNW 06:57:57 10° SSW
Cosmos 2058 4.0 06:50:39 10° NW 06:53:58 24° W 06:57:19 10° SW
Cosmos 2228 Rocket 3.3 06:52:18 10° S 06:56:45 80° E 07:01:11 10° N
Iridium 4 Rocket 4.4 06:55:28 10° NNE 06:59:33 45° E 07:03:53 10° SSE
Cosmos 1470 Rocket 4.4 06:56:28 10° N 07:00:43 55° E 07:04:58 10° SSE
